Date String (YYYY-MM-DD hh:mm:ss) UTC,Instrument flags,absolute air pressure of the measurement (hPa),sample flow rate (lpm),inlet stack bypass flow (lpm),air temperature of the measurement (°C),ambient temperature measured by the external sensor (°C),aerosol sample conditioner tube jacket temperature (°C),OPC LED temperature (°C),internal box temperature (°C),relative humidity of the measurement (%),span deviation,mass concentration of particles derived from Lorenz-Mie calculation of OPC scattering (μg/m³),mass concentration of particles derived from Lorenz-Mie calculation of OPC scattering (μg/m³),mass concentration of particles derived from Lorenz-Mie calculation of OPC scattering (μg/m³)
DateTimeUTC,F1_M11,P_M11,Q1_M11,Q2_M11,T1_M11,T2_M11,T3_M11,T4_M11,T5_M11,U1_M11,ZSPAN_M11,X0_M11,X2_M11,X1_M11
2024-03-01 19:00:00,SystemResetWarning,0822.9,5.00,000.00,023.0,022.4,000.0,031.0,024.7,08.7,0000.0,0005.92,0002.16,0001.03
2024-03-01 19:01:00,SystemResetWarning,0822.6,5.00,000.00,023.0,022.4,000.0,031.0,024.8,08.9,0000.0,0005.03,0002.02,0001.00
2024-03-01 19:02:00,SystemResetWarning,0822.8,5.00,000.00,023.0,022.4,000.0,031.1,024.8,09.0,0000.0,0004.91,0002.00,0001.00
2024-03-01 19:03:00,SystemResetWarning,0822.7,4.99,000.00,023.1,022.4,000.0,031.1,024.8,08.9,0000.0,0004.50,0001.99,0001.00
2024-03-01 19:04:00,SystemResetWarning,0822.7,4.99,000.00,023.1,022.5,000.0,031.1,024.8,09.1,0000.0,0004.35,0001.95,0001.00
2024-03-01 19:05:00,SystemResetWarning,0822.7,4.99,000.00,023.1,022.5,000.0,031.1,024.8,09.1,0000.0,0005.25,0002.00,0001.01
2024-03-01 19:06:00,SystemResetWarning,0822.7,5.01,000.00,023.1,022.5,000.0,031.1,024.8,08.9,0000.0,0006.17,0002.05,0001.02
2024-03-01 19:07:00,SystemResetWarning,0822.6,5.01,000.00,023.1,022.5,000.0,031.1,024.8,08.7,0000.0,0006.01,0001.99,0001.02
2024-03-01 19:08:00,SystemResetWarning,0822.7,5.00,000.00,023.1,022.5,000.0,031.1,024.9,08.6,0000.0,0005.69,0001.98,0001.03
2024-03-01 19:09:00,SystemResetWarning,0822.6,4.99,000.00,023.1,022.5,000.0,031.1,024.9,08.4,0000.0,0005.63,0002.00,0001.04
2024-03-01 19:10:00,SystemResetWarning,0822.6,5.00,000.00,023.2,022.6,000.0,031.1,024.9,08.5,0000.0,0006.00,0001.95,0001.04
2024-03-01 19:11:00,SystemResetWarning,0822.6,5.01,000.00,023.2,022.6,000.0,031.2,024.9,08.6,0000.0,0005.95,0001.96,0001.05
2024-03-01 19:12:00,SystemResetWarning,0822.6,5.01,000.00,023.2,022.6,000.0,031.2,024.9,08.6,0000.0,0006.05,0002.00,0001.06
2024-03-01 19:13:00,SystemResetWarning,0822.7,5.00,000.00,023.2,022.6,000.0,031.2,025.0,08.4,0000.0,0005.95,0001.98,0001.06
2024-03-01 19:14:00,SystemResetWarning,0823.0,4.99,000.00,023.2,022.6,000.0,031.2,025.0,08.4,0000.0,0006.23,0002.02,0001.06
2024-03-01 19:15:00,SystemResetWarning,0822.9,5.00,000.00,023.3,022.7,000.0,031.2,025.0,08.8,0000.0,0006.48,0002.09,0001.06
2024-03-01 19:16:00,SystemResetWarning,0822.7,5.00,000.00,023.3,022.7,000.0,031.2,025.0,08.5,0000.0,0006.01,0002.08,0001.06
2024-03-01 19:17:00,SystemResetWarning,0822.5,5.00,000.00,023.3,022.7,000.0,031.2,025.0,08.5,0000.0,0005.10,0002.13,0001.06
2024-03-01 19:18:00,SystemResetWarning,0822.4,5.00,000.00,023.3,022.7,000.0,031.3,025.0,08.6,0000.0,0005.33,0002.22,0001.06
2024-03-01 19:19:00,SystemResetWarning,0822.6,5.00,000.00,023.3,022.7,000.0,031.3,025.0,08.5,0000.0,0005.48,0002.24,0001.06
2024-03-01 19:20:00,SystemResetWarning,0822.7,5.00,000.00,023.3,022.7,000.0,031.3,025.0,08.4,0000.0,0006.03,0002.25,0001.07
2024-03-01 19:21:00,SystemResetWarning,0822.7,5.00,000.00,023.3,022.7,000.0,031.3,025.1,08.4,0000.0,0005.52,0002.21,0001.06
2024-03-01 19:22:00,SystemResetWarning,0822.7,5.00,000.00,023.3,022.7,000.0,031.3,025.1,08.3,0000.0,0005.06,0002.19,0001.05
2024-03-01 19:23:00,SystemResetWarning,0822.7,5.00,000.00,023.4,022.8,000.0,031.3,025.1,08.4,0000.0,0004.93,0002.08,0001.03
2024-03-01 19:24:00,SystemResetWarning,0823.0,4.99,000.00,023.4,022.8,000.0,031.3,025.1,08.5,0000.0,0006.15,0002.14,0001.04
2024-03-01 19:25:00,SystemResetWarning,0822.7,5.01,000.00,023.4,022.8,000.0,031.4,025.1,08.4,0000.0,0006.16,0002.13,0001.02
2024-03-01 19:26:00,SystemResetWarning,0822.7,5.01,000.00,023.4,022.8,000.0,031.4,025.1,08.4,0000.0,0006.11,0002.11,0001.01
2024-03-01 19:27:00,SystemResetWarning,0822.7,5.00,000.00,023.4,022.8,000.0,031.4,025.1,08.3,0000.0,0007.15,0002.11,0001.01
2024-03-01 19:28:00,SystemResetWarning,0822.7,4.99,000.00,023.4,022.8,000.0,031.4,025.1,08.3,0000.0,0007.20,0002.12,0001.02
2024-03-01 19:29:00,SystemResetWarning,0822.6,4.99,000.00,023.4,022.8,000.0,031.4,025.1,08.3,0000.0,0006.99,0002.02,0001.02
2024-03-01 19:30:00,SystemResetWarning,0822.8,4.99,000.00,023.5,022.8,000.0,031.4,025.1,08.0,0000.0,0006.98,0001.99,0001.00
2024-03-01 19:31:00,SystemResetWarning,0822.9,5.00,000.00,023.5,022.9,000.0,031.4,025.2,08.2,0000.0,0006.36,0001.93,0001.00
2024-03-01 19:32:00,SystemResetWarning,0822.6,5.01,000.00,023.5,022.9,000.0,031.5,025.2,08.1,0000.0,0006.18,0001.89,0000.99
2024-03-01 19:33:00,SystemResetWarning,0822.7,5.01,000.00,023.5,022.9,000.0,031.5,025.2,08.3,0000.0,0008.08,0001.90,0001.00
2024-03-01 19:34:00,SystemResetWarning,0822.5,4.99,000.00,023.5,022.9,000.0,031.5,025.2,08.3,0000.0,0008.26,0001.98,0001.00
2024-03-01 19:35:00,SystemResetWarning,0823.0,4.99,000.00,023.5,022.9,000.0,031.5,025.3,08.3,0000.0,0007.83,0002.01,0001.00
2024-03-01 19:36:00,SystemResetWarning,0822.4,5.00,000.00,023.5,022.9,000.0,031.5,025.3,08.3,0000.0,0007.66,0001.98,0000.99
2024-03-01 19:37:00,SystemResetWarning,0822.4,5.00,000.00,023.6,023.0,000.0,031.5,025.3,08.1,0000.0,0008.46,0001.98,0001.00
2024-03-01 19:38:00,SystemResetWarning,0822.6,5.00,000.00,023.6,023.0,000.0,031.5,025.3,08.1,0000.0,0008.00,0001.94,0001.00
2024-03-01 19:39:00,SystemResetWarning,0822.7,5.01,000.00,023.6,023.0,000.0,031.6,025.3,08.3,0000.0,0008.23,0002.00,0000.99
2024-03-01 19:40:00,SystemResetWarning,0822.8,4.99,000.00,023.6,023.0,000.0,031.6,025.3,08.4,0000.0,0008.44,0002.07,0000.98
2024-03-01 19:41:00,SystemResetWarning,0822.9,4.99,000.00,023.6,023.0,000.0,031.6,025.3,08.4,0000.0,0008.60,0002.11,0000.98
2024-03-01 19:42:00,SystemResetWarning,0822.7,4.99,000.00,023.6,023.0,000.0,031.6,025.3,08.2,0000.0,0008.64,0002.14,0000.99
2024-03-01 19:43:00,SystemResetWarning,0822.8,4.99,000.00,023.6,023.0,000.0,031.6,025.3,08.4,0000.0,0008.67,0002.16,0000.98
2024-03-01 19:44:00,SystemResetWarning,0822.6,5.01,000.00,023.7,023.0,000.0,031.6,025.4,08.5,0000.0,0007.51,0002.15,0000.97
2024-03-01 19:45:00,SystemResetWarning,0822.4,5.01,000.00,023.7,023.0,000.0,031.6,025.4,08.5,0000.0,0007.25,0002.10,0000.97
2024-03-01 19:46:00,SystemResetWarning,0822.5,5.01,000.00,023.7,023.0,000.0,031.7,025.4,08.4,0000.0,0007.16,0002.05,0000.98
2024-03-01 19:47:00,SystemResetWarning,0822.6,5.00,000.00,023.7,023.0,000.0,031.7,025.4,08.3,0000.0,0007.33,0002.00,0000.98
2024-03-01 19:48:00,SystemResetWarning,0822.6,4.98,000.00,023.7,023.0,000.0,031.7,025.4,08.3,0000.0,0006.95,0002.02,0000.98
2024-03-01 19:49:00,SystemResetWarning,0822.8,4.99,000.00,023.7,023.1,000.0,031.7,025.4,08.5,0000.0,0006.72,0002.07,0000.99
2024-03-01 19:50:00,SystemResetWarning,0822.5,5.01,000.00,023.7,023.1,000.0,031.7,025.4,08.5,0000.0,0006.30,0002.01,0000.99
2024-03-01 19:51:00,SystemResetWarning,0822.8,5.01,000.00,023.7,023.1,000.0,031.7,025.5,08.3,0000.0,0005.96,0001.96,0001.00
2024-03-01 19:52:00,SystemResetWarning,0822.6,5.00,000.00,023.7,023.1,000.0,031.7,025.5,08.2,0000.0,0005.78,0001.98,0001.00
2024-03-01 19:53:00,SystemResetWarning,0822.6,5.00,000.00,023.7,023.1,000.0,031.7,025.5,08.2,0000.0,0005.90,0002.00,0001.00
2024-03-01 19:54:00,SystemResetWarning,0822.6,5.00,000.00,023.8,023.1,000.0,031.7,025.5,08.5,0000.0,0005.86,0002.00,0000.99
2024-03-01 19:55:00,SystemResetWarning,0822.6,5.00,000.00,023.8,023.1,000.0,031.7,025.5,08.4,0000.0,0006.03,0002.05,0001.00
2024-03-01 19:56:00,SystemResetWarning,0822.5,5.00,000.00,023.8,023.1,000.0,031.8,025.5,08.4,0000.0,0005.87,0002.03,0001.00
2024-03-01 19:57:00,SystemResetWarning,0822.7,5.00,000.00,023.8,023.2,000.0,031.8,025.5,08.4,0000.0,0005.89,0002.03,0000.99
2024-03-01 19:58:00,SystemResetWarning,0823.0,5.01,000.00,023.8,023.2,000.0,031.8,025.5,08.4,0000.0,0005.70,0002.09,0000.98
2024-03-01 19:59:00,SystemResetWarning,0823.0,5.01,000.00,023.8,023.2,000.0,031.8,025.5,08.4,0000.0,0005.92,0002.07,0000.99
